Location: Dulzura
(32.6442°N, 116.7814°W)
Time: 07:52:20
(UTC+00:00)

ATLAS 5 CENTAUR R/B - Visible Passes

Search period start: 26 June 2022 00:00
Search period end: 06 July 2022 00:00
Orbit: 479 x 1172 km, 63.3° (Epoch: 29 May)

Date Brightness Start Highest point End Pass type
(mag) Time Alt. Az. Time Alt. Az. Time Alt. Az.
26 Jun 4.0 08:38:14 17° NNE 08:38:14 17° NNE 08:39:15 10° NNE visible
27 Jun 4.2 08:18:10 15° NNE 08:18:10 15° NNE 08:18:53 10° NNE visible
28 Jun 4.3 07:58:04 13° NNE 07:58:04 13° NNE 07:58:30 10° NNE visible
29 Jun 4.4 07:37:56 11° NNE 07:37:56 11° NNE 07:38:06 10° NNE visible
04 Jul 4.4 07:37:38 10° NW 07:37:38 10° NW 07:37:43 10° NW visible
05 Jul 4.3 07:17:00 11° NW 07:17:00 11° NW 07:17:57 10° NNW visible
